• MPC Preparation (Info)

  • MPEC 2019-V94 : 2019 VL3

    The following Minor Planet Electronic Circular may be linked-to from your own Web pages, but must not otherwise be redistributed electronically.

    A form allowing access to any MPEC is at the bottom of this page.


    Read MPEC 2019-V93 Read MPEC 2019-V95


    M.P.E.C. 2019-V94                              Issued 2019 November 6, 22:15 UT
    
         The Minor Planet Electronic Circulars contain information on unusual
             minor planets and routine data on comets.  They are published
        on behalf of Division F of the International Astronomical Union by the
              Minor Planet Center, Smithsonian Astrophysical Observatory,
                              Cambridge, MA 02138, U.S.A.
    
                 Prepared using the Tamkin Foundation Computer Network
    
                                  MPC@CFA.HARVARD.EDU
                URL https://www.minorplanetcenter.net/    ISSN 1523-6714
    
                                    2019 VL3                                 
    
    
    Observations:
         K19V03L  C2019 11 02.38218701 36 27.284+34 56 26.51         21.4 GVEV094F51
         K19V03L  C2019 11 02.39394601 36 24.146+34 55 28.65         21.5 GVEV094F51
         K19V03L  C2019 11 02.40567501 36 21.061+34 54 31.38         21.5 GVEV094F51
         K19V03L  C2019 11 03.34815301 32 26.402+33 35 13.50         21.7 GVEV094F51
         K19V03L* C2019 11 04.19487 01 28 53.34 +32 19 35.0                VEV094G96
         K19V03L  C2019 11 04.20009 01 28 51.93 +32 19 06.2          21.7 GVEV094G96
         K19V03L  C2019 11 04.20532 01 28 50.50 +32 18 38.2          22.2 GVEV094G96
         K19V03L  C2019 11 04.21055 01 28 49.14 +32 18 08.9                VEV094G96
         K19V03L  C2019 11 04.22926501 28 43.98 +32 16 25.6          21.2 GVEV094H01
         K19V03L  C2019 11 04.23276201 28 43.04 +32 16 06.4          21.3 GVEV094H01
         K19V03L  C2019 11 04.24340901 28 40.19 +32 15 07.8          21.8 GVEV094H01
         K19V03L  C2019 11 04.25196301 28 37.91 +32 14 20.5          21.4 GVEV094H01
         K19V03L  C2019 11 04.25510 01 28 37.20 +32 14 04.0          21.5 GVEV094G96
         K19V03L  C2019 11 04.25764 01 28 36.53 +32 13 50.0          21.8 GVEV094G96
         K19V03L  C2019 11 04.26017 01 28 35.84 +32 13 36.2          21.9 GVEV094G96
         K19V03L  C2019 11 04.26271 01 28 35.17 +32 13 21.9          21.5 GVEV094G96
         K19V03L  C2019 11 05.13775 01 24 54.89 +30 50 34.4          21.4 GVEV094I52
         K19V03L  C2019 11 05.14108 01 24 53.95 +30 50 15.7          21.2 GVEV094I52
         K19V03L  C2019 11 05.14442 01 24 53.13 +30 49 56.3          21.3 GVEV094I52
         K19V03L  C2019 11 05.30961601 24 10.608+30 33 57.80         21.9 GVEV094F51
         K19V03L  C2019 11 05.32225301 24 07.167+30 32 43.46         21.4 GVEV094F51
         K19V03L  C2019 11 05.35028101 23 59.548+30 29 59.08         21.2 GVEV094F51
         K19V03L  C2019 11 05.47140401 23 26.833+30 17 58.41         21.45wUEV094F51
         K19V03L  C2019 11 05.48307901 23 23.706+30 16 48.31         21.42wUEV094F51
         K19V03L  C2019 11 05.49476701 23 20.612+30 15 38.00         21.44wUEV094F51
         K19V03L KC2019 11 06.14095701 20 38.08 +29 10 11.5          21.5 VuEV094H21
         K19V03L KC2019 11 06.15023201 20 35.59 +29 09 14.3          21.6 VuEV094H21
    
    Observer details:
    F51 Pan-STARRS 1, Haleakala.  Observers J. Bulger, K. Chambers, T. Lowe, E. 
       Magnier, A. Schultz, M. Willman.  Measurers S. Chastel, M. Huber, Y. 
       Ramanjooloo, R. Wainscoat, R. Weryk, K. Chambers, T. de Boer, L. Denneau, J. 
       Fairlamb, H. Flewelling, C.-C. Lin, E. Magnier.  1.8-m Ritchey-Chretien + 
       CCD.
    G96 Mt. Lemmon Survey.  Observer E. J. Christensen.  Measurers E. J. 
       Christensen, G. A. Farneth, D. C. Fuls, A. R. Gibbs, A. D. Grauer, H. 
       Groeller, R. A. Kowalski, S. M. Larson, G. J. Leonard, T. A. Pruyne, D. 
       Rankin, R. L. Seaman, F. C. Shelly, K. W. Wierzchos.  1.5-m reflector + 10K 
       CCD.
    H01 Magdalena Ridge Observatory, Socorro.  Observers W. H. Ryan, E. V. Ryan.  
        Measurer W. H. Ryan.  2.4-m f/8.9 Ritchey-Chretien + CCD.
    H21 Astronomical Research Observatory, Westfield.  Observer R. Holmes.  
        Measurers S. Foglia, L. Buzzi, T. Linder, R. Holmes.  1.3-m f/4.0 
       astrograph + CCD.
    I52 Steward Observatory, Mt. Lemmon Station.  Observer D. Rankin.  Measurers E. 
       J. Christensen, G. A. Farneth, D. C. Fuls, A. R. Gibbs, A. D. Grauer, H. 
       Groeller, R. A. Kowalski, S. M. Larson, G. J. Leonard, T. A. Pruyne, D. 
       Rankin, R. L. Seaman, F. C. Shelly, K. W. Wierzchos.  1.0-m reflector + CCD.
    
    Orbital elements:
    2019 VL3                                                 Earth MOID = 0.0985 AU
    Epoch 2019 Apr. 27.0 TT = JDT 2458600.5                 Bell
    M 115.04421              (2000.0)            P               Q
    n   0.85689918     Peri.  300.11030     -0.90188307     -0.25625981
    a   1.0977823      Node   227.61378     +0.29407329     -0.95391507
    e   0.4395864      Incl.   28.08800     -0.31642980     -0.15613118
    P   1.15           H   23.3           G   0.15           U   8
    Residuals in seconds of arc
    191102 F51  0.2+  0.2+    191104 H01  0.0   0.1+    191105 I52  1.0+  0.2+
    191102 F51  0.2-  0.2-    191104 H01  0.0   0.2+    191105 F51  0.2+  0.2+
    191102 F51  0.1+  0.0     191104 H01  0.1+  0.1+    191105 F51  0.1-  0.2-
    191103 F51  0.2-  0.1-    191104 G96  0.1-  0.1-    191105 F51  0.5-  0.0
    191104 G96  0.3+  0.1+    191104 G96  0.0   0.1-    191105 F51  0.1-  0.1-
    191104 G96  0.1+  0.1-    191104 G96  0.1-  0.1+    191105 F51  0.1-  0.0
    191104 G96  0.3-  0.5+    191104 G96  0.0   0.1-    191105 F51  0.3+  0.1+
    191104 G96  0.1+  0.2-    191105 I52  0.8+  0.2-    191106 H21  0.2-  0.1+
    191104 H01  0.1+  0.0     191105 I52  0.1+  0.3+    191106 H21  0.1-  0.0
    
    Ephemeris:
    2019 VL3                 a,e,i = 1.10, 0.44, 28                  q = 0.6152
    Date    TT    R. A. (2000) Decl.     Delta      r    Elong.  Phase     V
    2019 10 07    02 49 49.5 +49 34 35   0.5122  1.3795   128.8    34.4    24.0
    ...
    2019 10 22    02 18 16.5 +45 19 12   0.3572  1.3033   144.7    26.2    22.8
    ...
    2019 10 30    01 50 07.1 +39 01 20   0.2871  1.2575   153.9    20.3    22.1
    ...
    2019 11 05    01 25 28.6 +31 04 02   0.2446  1.2208   157.2    18.4    21.6
    2019 11 06    01 21 13.8 +29 24 50   0.2386  1.2145   156.9    18.7    21.6
    2019 11 07    01 16 58.3 +27 39 46   0.2330  1.2082   156.3    19.2    21.5
    ...
    2019 11 13    00 51 40.3 +15 12 41   0.2077  1.1689   146.7    27.7    21.5
    ...
    2019 11 21    00 20 43.8 -04 28 50   0.1995  1.1136   124.6    46.9    21.8
    ...
    2019 12 06    23 35 24.0 -34 37 01   0.2478  1.0019    86.6    79.1    23.0
    
    A. U. Tomatic                (C) Copyright 2019 MPC           M.P.E.C. 2019-V94
    


    Read MPEC 2019-V93 Read MPEC 2019-V95


    MPEC number:

    Enter an MPEC number in one of the following forms:

    • 1997-B01 (the full form)
    • J97B01 (the packed version of the full form)
    • B01 (the abbreviated form)